News

From 0-500 hours free webinar

Flying Academy is hosting on 23 of October from 17:00 to 18:00 CET (UTC+2) a free live webinar where our Flight Training Consultants will present all details about our 0-500 hours course.

During this one hour presentation we will discuss about:

- course description

- requirements to enroll

- course duration and cost

- opportunities after training

- living in the Czech Republic

- extra curricular activities.

We will also have a Q&A session at the end so that all question which you might have will be answered.

You can register for free HERE

continue reading >>

New ATPL650 - theoretical course - starts in Brno as of 29.10.2014

Flying Academy, one of the fastest growing international flight school in Europe launches new ATPL(A) theory course.

Theory program, divided in 2 blocks, lasts for 28 weeks.

Register now for the following block that will start
as of 29th of October in Brno and use solid advantages of high standard flight training in an airline-like environment:

 

continue reading >>

Flight Pad - new version

There is a new version of Flight Pad available.

To install new verison click on hyperlink install application in browser on your iPad.

continue reading >>

archive

Latest blog post

10 advantages for using the iPad in the cockpit

Flying Academy – the flight training organization managed by airline pilots – has started 2 months ago to equip its trainees with iPads. The Academy took the lead to revolutionize the cockpit and pilot training, realizing the vision of paperless flying and becoming the first Czech FTO to fly with iPad EFBs. The process will make learning to fly much easier, more efficient and accurate, useful for private pilots and important for future commercial pilots.

After having the iPad in trials, Flying Academy’s flight instructors have concluded that it’s extremely useful in the cockpit because it’s:

1. Fast – extremely short response time;

2. Reliable – as the iOS has very limited crashes;

3. Easy to use – intuitive menu and apps.

continue reading >>

archive

Latest weather

LKKV

LKKV 251500Z VRB02KT 9999 FEW013 BKN023 08/05 Q1021

LKPR

LKPR 251500Z 20005KT 9999 OVC015 07/04 Q1023 NOSIG

LKTB

LKTB 251500Z 12004KT 7000 FEW007 OVC020 07/06 Q1024 NOSIG



Briefing tools

METAR & TAF Europe

METAR & TAF CZ

Weather Radar CZ

AIP Czech Republic

From 0 to 500 hours with Flying Academy Find out how